SCP
0 0 0 0 0 0 0 0 -0 -0 -0 -0 0 0 0 0 0 0 0 0 0 0 0 0 0 0 0 0 0 0 0 0 0 1 1 1 1 0 0 0 0 0 0 0
0 0 0 0 0 0 0 0 -0 -0 -0 -0 0 0 0 0 0 0 0 0 0 0 0 0 0 0 0 0 0 0 0 0 0 1 1 1 1 0 0 0 0 0 0 0
0 0 0 0 0 0 0 -0 -0 -0 -0 -0 0 0 0 0 0 0 0 0 0 0 0 0 0 0 0 0 0 0 0 0 0 1 1 1 0 0 0 0 0 0 0 0
0 0 0 0 0 0 0 0 0 0 0 0 0 0 0 0 0 0 0 0 0 0 0 0 0 0 0 0 0 0 0 0 0 0 1 1 0 0 0 0 0 0 0 0
0 0 0 0 0 0 0 0 0 0 0 0 0 0 0 0 0 0 0 0 0 0 0 0 0 0 0 0 0 0 0 0 0 0 0 0 0 0 0 0 0 0 0 0
0 0 0 0 0 0 0 0 0 0 0 0 0 0 0 0 0 0 0 0 0 0 0 0 0 0 0 0 0 0 0 0 0 0 0 0 0 0 0 0 0 0 0 0
-0 0 0 0 0 0 0 0 0 0 0 0 0 0 0 0 0 0 0 0 0 0 0 0 0 0 0 0 0 0 0 0 0 0 0 0 0 0 0 0 0 0 0 0
-0 0 0 0 0 0 0 0 0 0 0 0 0 0 0 0 0 0 0 0 0 0 0 0 0 0 0 0 0 0 0 0 0 0 0 0 0 0 0 0 0 0 0 0
0 0 0 0 0 0 0 0 0 0 0 0 0 0 0 0 0 0 0 0 0 0 0 0 0 0 0 0 0 0 0 0 0 0 0 0 0 0 0 0 0 0 0 0
0 0 0 0 0 0 0 0 0 0 0 0 0 0 0 0 0 0 0 0 0 0 0 0 0 0 0 0 0 0 0 0 0 0 0 0 0 0 0 0 0 0 0 0
0 0 0 0 0 0 0 0 0 0 0 0 0 0 0 0 0 0 0 0 0 0 0 0 0 0 0 0 0 0 0 0 0 0 0 0 0 0 0 0 0 0 0 0
0 0 0 0 0 0 0 0 0 0 0 0 0 0 0 0 0 0 0 0 0 0 0 0 0 0 0 0 0 0 0 0 0 0 0 0 0 0 0 0 0 0 0 0
0 0 0 0 0 0 0 0 0 0 0 0 0 0 0 0 0 0 0 0 0 0 0 0 0 0 0 0 0 0 0 0 0 0 0 0 0 0 0 0 0 0 0 0
0 0 0 0 0 0 0 0 0 0 0 0 0 0 0 0 0 0 0 0 0 0 0 0 0 0 0 0 0 0 0 0 0 0 0 0 0 0 0 0 0 0 0 0
0 0 0 0 0 0 0 0 0 0 0 0 0 0 0 0 0 0 0 0 0 0 0 0 0 0 0 0 0 0 0 0 0 0 0 0 0 0 0 0 0 0 0 0
0 0 0 0 0 0 0 0 0 0 0 0 0 0 0 0 0 0 0 0 0 0 0 0 0 0 0 0 0 0 0 0 0 0 0 0 0 0 0 0 0 0 0 0
0 0 0 0 0 0 0 0 0 0 0 0 0 0 0 0 0 0 0 0 0 0 0 0 0 0 0 0 0 0 0 0 0 0 0 0 0 0 0 0 0 0 0 0
0 0 0 0 0 0 0 0 0 0 0 0 0 0 0 0 0 0 0 0 0 0 0 0 0 0 0 0 0 0 0 0 0 0 0 0 0 0 0 0 0 0 0 0
0 0 0 0 0 0 0 0 0 0 0 0 0 0 0 0 0 0 0 0 0 0 0 0 0 0 0 0 0 0 0 0 0 0 0 0 0 0 0 0 0 0 0 0
0 0 0 0 0 0 0 0 0 -0 0 0 0 0 0 0 0 0 0 0 0 0 0 0 0 0 0 0 0 0 0 0 0 0 0 0 0 0 0 0 0 0 0 0
0 0 0 0 0 0 0 0 0 0 0 0 0 0 0 0 0 0 0 0 0 0 0 0 0 0 0 0 0 0 0 0 0 0 0 0 0 0 0 0 0 0 0 0
0 0 0 0 0 0 0 0 0 0 0 0 0 0 0 0 0 0 0 0 0 0 0 0 0 0 0 0 0 0 0 0 0 0 0 0 0 0 0 0 0 0 0 0
0 0 0 0 0 0 0 0 0 0 0 0 0 0 0 0 0 0 0 0 0 0 0 0 0 0 0 0 0 0 0 0 0 0 0 0 0 0 0 0 0 0 0 0
0 0 0 0 0 0 0 0 0 0 0 0 0 0 0 0 0 0 0 0 0 0 0 0 0 0 0 0 0 0 0 0 0 0 0 0 0 0 0 0 0 0 0 0
0 0 0 0 0 0 0 0 0 0 0 0 0 0 0 0 0 0 0 0 0 0 0 0 0 0 0 0 0 0 0 0 0 0 0 0 0 0 0 0 0 0 0 0
0 0 0 0 0 0 0 0 0 0 0 0 0 0 0 0 0 0 0 0 0 0 0 0 0 0 0 0 0 0 0 0 0 0 0 0 0 0 0 0 0 0 0 0
Wind_Speed
3 3 5 7 7 10 12 14 18 19 16 15 18 20 18 15 11 9 9 9 11 11 11 9 7 6 6 6 6 7 8 8 7 7 8 8 9 9 9 9 12 14 14 15
4 5 7 8 9 11 12 14 16 16 15 15 17 20 17 11 8 7 7 7 9 11 9 7 6 5 6 7 7 7 8 8 8 8 8 7 8 8 8 9 11 14 14 15
7 7 8 9 10 11 12 12 14 18 20 13 13 13 10 7 5 6 6 7 8 10 9 7 5 6 5 6 7 8 8 8 8 8 7 6 7 7 7 10 10 12 14 14
7 6 8 9 10 10 11 11 15 17 14 9 7 10 9 8 7 7 7 7 8 10 9 8 5 6 5 5 5 7 7 6 6 6 7 10 10 9 9 9 9 12 13 14
7 7 7 9 10 11 9 13 16 18 14 13 9 8 7 6 7 8 8 8 9 10 10 9 6 6 5 5 5 5 6 5 5 4 7 10 9 7 7 9 11 12 12 13
11 9 6 6 8 9 11 12 14 11 6 7 6 6 5 4 7 9 9 9 10 11 10 9 7 6 6 5 5 4 5 5 4 4 7 8 10 9 11 12 12 10 10 11
8 7 4 2 6 6 7 6 6 5 3 5 6 4 2 3 6 7 8 10 9 10 10 10 9 8 7 6 6 6 5 5 4 4 6 6 8 11 12 12 12 11 10 10
6 6 1 1 3 5 5 3 2 5 6 8 7 3 1 3 5 7 8 9 10 10 10 10 10 8 8 7 6 6 5 5 4 4 5 5 7 8 8 11 11 11 10 10
4 6 4 5 4 3 4 3 3 5 8 7 5 3 3 6 7 8 10 11 11 11 11 10 10 10 9 8 7 7 6 5 4 4 3 4 6 7 7 10 11 10 9 10
3 8 8 6 3 5 4 4 3 3 5 6 6 4 4 7 9 11 11 11 12 12 12 10 10 10 9 8 8 7 5 5 5 4 3 3 4 6 7 8 11 11 11 11
3 5 7 5 4 4 3 2 3 4 4 5 7 4 2 4 7 8 9 10 10 11 11 10 10 9 9 9 8 7 6 6 4 4 3 3 4 5 7 7 9 10 11 13
3 4 7 9 6 3 3 3 3 3 6 5 6 7 2 3 5 6 8 9 9 9 9 10 10 9 8 9 9 8 7 6 5 4 3 3 3 5 6 7 8 9 10 11
3 3 6 5 2 1 2 4 5 5 5 6 7 9 3 4 6 7 8 8 9 9 9 9 9 9 9 9 9 9 8 7 6 4 3 2 2 3 5 7 8 9 10 9
4 5 8 9 7 4 7 8 7 7 7 9 12 15 12 9 9 9 9 8 9 9 9 9 9 9 9 9 9 9 9 8 7 5 3 3 2 3 3 5 7 8 10 10
5 7 10 15 16 14 14 14 12 13 13 12 14 16 16 10 8 9 9 9 9 9 9 10 9 8 9 9 10 10 10 8 7 6 3 3 3 2 2 3 5 6 8 10
5 6 8 14 15 15 18 17 15 15 15 17 18 19 13 9 7 8 9 8 8 9 9 9 10 9 9 9 10 10 10 8 7 6 4 3 3 3 2 3 4 6 7 9
6 5 5 9 9 11 14 13 13 12 11 11 14 14 9 9 8 7 7 6 7 8 8 8 8 8 8 8 8 9 10 8 6 6 5 3 3 3 3 2 3 5 6 7
7 6 5 6 6 11 10 4 6 8 10 9 10 9 7 7 7 7 4 4 6 7 8 8 7 8 8 7 8 8 8 7 6 6 6 5 4 4 4 2 2 4 4 5
11 8 5 4 7 12 10 6 6 6 9 7 8 8 7 6 7 5 2 3 5 6 6 6 7 7 8 8 8 8 8 7 6 6 6 6 4 4 4 3 3 2 3 4
9 8 7 6 7 9 6 1 3 0 7 4 4 5 5 4 5 5 4 5 5 6 5 6 7 7 7 8 7 8 7 7 6 6 6 6 5 5 4 4 3 2 3 4
7 8 12 11 9 10 6 3 5 3 7 2 2 3 4 4 5 5 5 5 5 6 6 7 7 6 7 7 7 7 7 7 7 7 7 6 6 5 5 4 2 2 2 4
11 8 9 8 10 12 4 6 6 6 2 2 3 3 4 5 6 5 5 5 6 6 6 7 6 6 6 6 7 7 8 8 7 6 6 7 6 5 4 3 2 2 3 4
10 11 7 10 11 5 3 5 5 2 4 4 4 4 5 6 6 6 6 6 6 6 6 6 6 7 6 6 6 7 8 8 7 6 6 7 7 5 3 2 2 2 3 3
6 7 6 7 9 8 6 5 4 5 5 5 4 5 5 6 6 6 6 6 6 6 5 5 6 6 7 7 7 7 7 7 6 6 6 6 5 5 3 2 1 2 2 3
6 5 7 10 9 8 8 7 6 5 5 5 5 5 6 6 6 6 6 6 5 5 5 5 5 6 7 7 8 7 7 7 6 6 6 6 4 4 2 2 1 2 2 3
8 9 9 9 6 6 5 4 4 4 4 4 5 6 5 5 5 5 5 5 5 5 5 5 6 6 7 7 8 7 6 6 6 6 6 5 3 3 2 1 2 2 2 2
Wind_Direction
258 261 274 290 295 293 297 295 295 298 302 304 294 292 294 289 287 290 293 296 297 289 284 274 271 263 262 263 259 247 242 231 217 208 202 195 184 179 177 174 173 170 168 165
293 267 290 310 308 303 298 295 295 301 312 308 294 290 289 288 289 291 302 307 311 303 302 296 292 286 259 250 252 253 245 232 227 216 202 196 184 178 180 171 172 172 170 168
282 287 316 311 308 304 298 293 301 307 312 296 289 287 284 292 307 324 327 324 326 320 315 307 300 298 277 251 247 248 249 232 231 221 197 188 175 169 177 175 172 175 173 170
283 290 303 303 300 305 296 300 304 303 305 294 301 298 300 316 333 343 341 346 342 337 328 321 315 313 300 278 262 251 256 241 235 221 201 189 182 181 182 176 171 172 174 170
279 292 297 295 300 305 294 303 297 288 282 282 274 265 287 330 337 341 351 352 346 339 331 327 319 314 310 303 282 263 263 255 243 232 212 191 182 181 170 170 172 175 176 172
267 269 274 289 303 300 308 310 295 276 264 269 261 259 298 341 342 348 354 351 347 343 337 333 330 323 325 327 315 272 261 258 247 239 222 192 178 178 175 171 175 176 175 171
296 266 231 303 316 309 329 333 327 329 280 259 311 287 291 359 6 3 355 353 352 351 347 345 345 344 335 331 326 303 276 270 262 245 228 197 184 182 180 175 175 176 174 174
306 299 283 312 299 305 301 303 306 300 291 305 310 274 301 19 18 16 7 358 354 353 349 346 346 343 341 336 331 323 305 286 270 250 226 203 197 188 181 181 176 179 179 176
292 284 310 306 292 287 294 280 274 273 279 278 270 280 293 356 9 11 6 1 356 353 350 349 347 346 343 338 332 324 318 303 282 266 231 206 206 196 187 183 177 179 179 175
270 283 285 287 276 234 248 301 322 289 294 290 287 287 306 356 360 0 359 356 352 352 349 346 345 343 341 336 331 326 324 311 299 287 238 225 223 202 186 186 181 179 180 174
246 265 285 278 226 242 230 252 263 266 267 285 295 287 338 0 356 350 349 349 345 346 347 345 343 341 341 340 339 337 331 327 317 309 270 223 223 212 191 187 184 180 180 176
231 256 271 262 252 226 214 227 222 252 272 265 278 277 315 349 354 350 343 339 338 343 345 344 343 341 343 342 343 339 334 328 316 309 290 245 223 214 197 189 187 183 182 180
216 237 287 287 235 182 242 240 243 250 266 259 262 271 304 337 343 342 338 336 340 343 346 346 347 346 344 340 340 340 335 331 324 316 316 271 241 215 205 196 189 188 183 180
227 223 223 247 266 276 269 265 250 240 249 261 255 273 291 311 323 329 331 334 336 338 343 345 344 345 344 342 339 337 335 335 332 325 336 301 254 234 219 205 195 191 184 179
219 246 247 259 270 271 266 262 247 236 237 249 265 274 283 296 307 315 321 324 329 333 341 343 341 341 343 343 339 335 333 334 334 330 323 312 295 265 230 213 202 195 188 181
212 253 270 268 267 266 266 260 252 246 244 248 261 270 278 291 299 304 309 315 326 330 336 340 339 339 341 339 335 333 329 331 335 333 321 319 319 305 256 222 208 196 189 183
209 230 259 270 282 288 263 245 239 238 239 243 254 265 291 298 299 302 304 313 323 325 328 333 332 332 333 331 328 326 325 330 335 332 324 323 327 318 302 254 209 192 187 185
214 223 246 272 283 250 249 226 226 244 251 247 257 270 279 286 296 293 291 320 320 321 324 327 329 328 326 325 325 324 325 327 333 335 332 327 336 321 311 278 229 199 185 186
207 211 235 250 259 269 269 244 221 233 263 251 254 269 283 295 301 289 314 330 312 316 320 320 320 319 320 322 325 323 326 324 331 336 330 326 324 317 309 282 244 209 187 189
203 201 222 237 250 256 260 111 104 57 275 255 246 267 283 303 293 285 328 333 328 327 323 318 317 317 319 320 324 323 323 325 328 328 321 320 316 306 291 271 259 236 194 190
187 206 221 233 248 261 260 154 119 208 251 296 273 269 274 265 254 289 322 323 321 318 316 316 316 315 316 319 323 322 320 320 318 317 317 322 314 304 290 273 245 218 205 182
189 200 208 214 233 249 213 154 191 225 266 292 298 295 289 286 292 302 307 309 312 312 312 315 314 312 314 320 323 319 318 316 314 314 316 317 312 307 301 284 254 206 196 180
199 202 203 207 224 237 197 205 216 238 270 277 281 285 288 290 291 296 298 301 303 304 306 308 308 308 311 318 320 313 313 316 316 315 313 311 308 304 301 286 256 215 195 183
223 205 228 249 250 258 268 264 251 248 257 267 277 284 288 285 287 290 291 293 296 299 304 308 311 312 313 316 315 309 312 314 315 312 309 306 304 301 302 299 255 222 205 191
226 207 230 248 258 271 262 257 259 263 263 268 275 278 278 280 283 287 290 289 290 296 301 306 306 306 308 312 311 313 316 318 314 309 305 300 297 305 301 302 271 241 228 208
220 224 229 242 232 236 254 258 265 270 268 270 276 281 280 272 277 285 288 290 292 294 295 297 298 301 305 308 309 312 315 315 310 308 307 299 296 306 305 313 329 313 252 228